Погода в Чистякове

Украина / Донецкая область     48°01′32″N   38°37′00″E
темп.,
°C
ветер,
м/с
пор.,
м/с
влажн.,
%
обл.,
%
осадки,
мм/ч
давл.,
гПа
погр.,
м
2 марта, вт
вт223:00−1в128825 0.0 102824
02:00−1юз118813 0.0 102823
05:00−1зюз35930 0.0 1027134
08:00+1з597717 0.0 1026587
11:00+3з71058100 0.0 10241026
14:00+4зюз81160100 0.0 10221005
17:00+2зюз61273100 0.0 1019786
20:00+2зюз71378100 0.0 1018761
3 марта, ср
ср323:00+1зсз71296100 0.3 1015799
02:000зсз71296100 0.8 1015672
05:00+1сз7119798 0.4 1015677
08:00+1ссз8118095 0.7 1019864
11:00+1ссз7978100 0.1 1020970
14:00+3сз81160100 0.1 10211497
17:00+1сз5107091 0.1 1022572
20:00−1сз397650 0.1 1025354
4 марта, чт
чт423:00−1з23770 0.0 102584
02:00−1зюз37800 0.0 1024159
05:00−2зюз49810 0.0 1023251
08:00+1зюз611690 0.0 1022598
11:00+5зюз7105023 0.0 10201099
14:00+7зюз8125011 0.0 10181306
17:00+5юз613660 0.0 1016455
20:00+3юз7157518 0.0 1015546
5 марта, пт
пт523:00+2юз6158549 0.0 1014583
02:00+1юз7158652 0.0 1014562
05:00+1юз7149054 0.0 1013609
08:00+3зюз7118777 0.0 1014641
11:00+5зюз6981100 0.0 1014704
14:00+6юз6975100 0.0 1013786
17:00+6ююз6127697 0.0 1012572
20:00+4ююз6138899 0.0 1012528
6 марта, сб
сб623:00+3ююз6139391 0.0 1011461
02:00+3юз5139395 0.0 1010402
05:00+4зюз51094100 0.0 1011378
08:00+4зсз4793100 0.1 1013473
11:00+3с4577100 0.0 1013527
14:00+1с5793100 1.2 1014457
17:00+1с5877100 0.4 1014829
20:00−1ссз4873100 0.4 1017603